This demonstration page uses our WeatherBlox Daily Observations layout. Learn more.

Left ArrowRight Arrow

39.08367, -84.50855

Hourly Observations for June 26, 2015

Temp ( °F °C ) Dew Point ( °F °C ) Humidity (%) Winds ( mph kmh ) Pressure ( in mb ) Visibility ( mi km ) Precip ( " mm )
12:53 am 00:53 Mostly Cloudy 71 21.7 69 20.6 94 94 NE 3 6 29.93 1014 10 16 N/A
1:53 am 01:53 Mostly Cloudy 69 20.6 68 20 96 96 N N/A 29.90 1013 10 16 N/A
2:53 am 02:53 Cloudy with Nearby Thunderstorms 70 21.1 69 20.6 97 97 S 5 7 29.93 1013 10 16 N/A
3:20 am 03:20 Cloudy with Nearby Thunderstorms 72 22 72 22 100 100 WSW 15 24 29.94 1014 2 3 N/A
3:27 am 03:27 Cloudy with Strong Thunderstorms 71 21.7 70 21.1 96 96 SW 7 11 29.91 1013 2 3 N/A
3:32 am 03:32 Cloudy with Thunderstorms 72 22 70 21 94 94 SW 7 11 29.91 1013 3 5 N/A
3:42 am 03:42 Cloudy with Nearby Thunderstorms 72 22 70 21 94 94 WSW 13 20 29.91 1013 7 11 N/A
3:53 am 03:53 Cloudy 71 21.7 69 20.6 94 94 SW 8 13 29.93 1014 10 16 N/A
4:12 am 04:12 Cloudy with Light Rain 70 21 70 21 100 100 SSW 3 6 29.91 1013 10 16 N/A
4:53 am 04:53 Partly Cloudy 70 21.1 69 20.6 97 97 N N/A 29.92 1013 10 16 N/A
5:24 am 05:24 Mostly Cloudy 70 21 70 21 100 100 N N/A 29.91 1013 10 16 N/A
5:33 am 05:33 Mostly Cloudy 69 20.6 69 20.6 100 100 N N/A 29.91 1013 10 16 N/A
5:53 am 05:53 Mostly Cloudy 69 20.6 68 20 96 96 N N/A 29.90 1013 10 16 N/A
6:00 am 06:00 Mostly Clear 70 21 70 21 100 100 N N/A 29.91 1013 10 16 N/A
6:53 am 06:53 Mostly Sunny 69 20.6 68 20 96 96 WSW 5 7 29.92 1013 10 16 N/A
7:18 am 07:18 Mostly Cloudy 70 21 70 21 100 100 N N/A 29.91 1013 10 16 N/A
7:37 am 07:37 Mostly Cloudy 70 21.1 69 20.6 97 97 SW 7 11 29.94 1014 10 16 N/A
7:53 am 07:53 Cloudy 70 21.1 69 20.6 97 97 SW 5 7 29.96 1015 10 16 N/A
8:21 am 08:21 Partly Cloudy 71 21.7 69 20.6 94 94 SW 5 7 29.94 1014 10 16 N/A
8:31 am 08:31 Mostly Sunny 72 22.2 70 21.1 94 94 SSW 5 7 29.94 1014 10 16 N/A
8:48 am 08:48 Mostly Cloudy 72 22 70 21 94 94 N N/A 29.94 1014 10 16 N/A
8:53 am 08:53 Mostly Cloudy 72 22.2 70 21.1 94 94 WSW 3 6 29.95 1014 10 16 N/A
9:53 am 09:53 Cloudy 74 23.3 69 20.6 85 85 WSW 7 11 29.97 1015 10 16 N/A
10:53 am 10:53 Cloudy 75 23.9 70 21.1 84 84 N N/A 29.96 1015 10 16 N/A
11:53 am 11:53 Cloudy 76 24.4 70 21.1 82 82 S 5 7 29.97 1015 10 16 N/A
12:11 pm 12:11 Cloudy 76 24.4 71 21.7 85 85 S 7 11 29.94 1014 10 16 N/A
12:53 pm 12:53 Partly Cloudy 77 25 70 21.1 79 79 SSW 5 7 29.96 1014 10 16 N/A
1:53 pm 13:53 Mostly Sunny 79 26.1 70 21.1 74 74 SSE 7 11 29.93 1014 10 16 N/A
2:53 pm 14:53 Partly Cloudy 80 26.7 70 21.1 71 71 S 5 7 29.91 1013 10 16 N/A
3:40 pm 15:40 Mostly Cloudy with Nearby Thunderstorms 81 27 70 21 70 70 SSW 3 6 29.91 1013 10 16 N/A
3:53 pm 15:53 Mostly Cloudy 80 26.7 70 21.1 71 71 S 5 7 29.90 1013 10 16 N/A
4:53 pm 16:53 Cloudy 74 23.3 69 20.6 85 85 NNE 9 15 29.92 1013 10 16 N/A
5:53 pm 17:53 Mostly Cloudy 74 23.3 67 19.4 79 79 ENE 6 9 29.91 1013 10 16 N/A
6:22 pm 18:22 Cloudy 73 23 66 19 78 78 NE 9 15 29.91 1013 10 16 N/A
6:40 pm 18:40 Mostly Cloudy 73 23 64 18 74 74 NNE 12 19 29.91 1013 10 16 N/A
6:53 pm 18:53 Mostly Cloudy 72 22.2 66 18.9 82 82 NE 5 7 29.91 1013 10 16 N/A
7:53 pm 19:53 Cloudy with Light Rain 71 21.7 66 18.9 84 84 ENE 8 13 29.88 1012 10 16 N/A
8:26 pm 20:26 Cloudy with Nearby Thunderstorms 70 21 66 19 88 88 SE 7 11 29.88 1012 8 13 N/A
8:53 pm 20:53 Mostly Cloudy with Light Rain 68 20 67 19.4 96 96 SE 13 20 29.84 1011 9 14 0.06 1.52
9:53 pm 21:53 Clear 67 19.4 66 18.9 97 97 VRB 3 6 29.83 1010 10 16 0.01 0.25
10:10 pm 22:10 Mostly Clear 66 19 66 19 100 100 S 3 6 29.85 1011 10 16 N/A
10:53 pm 22:53 Cloudy 67 19.4 65 18.3 93 93 N N/A 29.86 1011 10 16 N/A
11:53 pm 23:53 Cloudy with Light Rain 67 19.4 66 18.9 97 97 N N/A 29.85 1011 10 16 0.01 0.25

Powered by AerisWeather